Regional Weather Roundup
Issued by NWS Charleston, WV

Home | Current Version | Previous Version | Text Only | Print | Product List | Glossary On
Versions: 1 2 3 4 5 6 7 8 9 10 11 12 13 14 15 16 17 18 19 20 21 22 23 24 25 26 27 28 29 30 31 32 33 34 35 36 37 38 39 40 41 42 43 44 45 46 47 48 49 50
000
ASUS41 KRLX 160410
RWRRLX
Regional Weather Roundup
National Weather Service Charleston WV
1200 AM EDT MON SEP 16 2019

Note: "fair" indicates few or no clouds below 12,000 feet with no
significant weather and/or obstructions to visibility.

WVZ003-160500-
Northern Panhandle of West Virginia

CITY           SKY/WX    TMP DP  RH WIND       PRES   REMARKS
WHEELING       MOCLDY    70  58  65 S5        30.11S
$$

WVZ009-160500-
Northwest West Virginia

CITY           SKY/WX    TMP DP  RH WIND       PRES   REMARKS
PARKERSBURG    FAIR      64  60  87 CALM      30.14S
$$

WVZ006-160500-
Western West Virginia

CITY           SKY/WX    TMP DP  RH WIND       PRES   REMARKS
HUNTINGTON     FAIR      65  58  78 CALM      30.10S
$$

WVZ015-160500-
West Central West Virginia

CITY           SKY/WX    TMP DP  RH WIND       PRES   REMARKS
CHARLESTON     FAIR      64  54  69 CALM      30.11F
$$

WVZ022-031-160500-
North Central West Virginia

CITY           SKY/WX    TMP DP  RH WIND       PRES   REMARKS
MORGANTOWN     CLOUDY    70  56  61 CALM      30.14S
CLARKSBURG     FAIR      67  58  72 CALM      30.13S
BUCKHANNON     FAIR      64  57  77 CALM      30.15F
$$

WVZ025-035-042-045-160500-
Southern West Virginia

CITY           SKY/WX    TMP DP  RH WIND       PRES   REMARKS
BECKLEY        FAIR      65  48  54 SE3       30.20F
LOGAN          FAIR      70  48  46 CALM      30.15F
PINEVILLE      FAIR      60  54  79 MISG      30.22R
BLUEFIELD      FAIR      69  49  48 CALM      30.23S
LEWISBURG      FAIR      60  51  71 CALM      30.20F
$$

WVZ047-160500-
Northern Mountains of West Virginia

CITY           SKY/WX    TMP DP  RH WIND       PRES   REMARKS
ELKINS         MOCLDY    60  55  83 CALM      30.19S
$$

WVZ052-160500-
Eastern Panhandle of West Virginia

CITY           SKY/WX    TMP DP  RH WIND       PRES   REMARKS
MARTINSBURG    FAIR      64  56  75 SW3       30.10S
PETERSBURG     FAIR      60  58  94 CALM      30.14S
$$

Southeast Ohio/Northeast Kentucky

CITY           SKY/WX    TMP DP  RH WIND       PRES   REMARKS
ATHENS         FAIR      62  62 100 CALM      30.11R
ASHLAND        FAIR      63  62  97 CALM      30.11R FOG
$$



USA.gov is the U.S. government's official web portal to all federal, state and local government web resources and services.